{"data":{"norad_id":61607,"epoch":"2026-05-25T04:10:17.534784Z","epoch_age_seconds":59741,"freshness":"FRESH","line1":"1 61607U 24188P   26145.17381406  .00000281  00000+0  76802-3 0  9997","line2":"2 61607  87.8854  40.8460 0000987  80.8279 279.2960 13.10370030 80294","mean_motion":13.1037003,"eccentricity":9.87e-5,"inclination_deg":87.8854,"raan_deg":40.846,"arg_perigee_deg":80.8279,"mean_anomaly_deg":279.296,"bstar":0.00076802,"rev_number":8029,"period_min":109.89262323101,"perigee_km":1220.9778200912,"apogee_km":1222.4780334278,"semimajor_km":7599.8649267595,"source":"CELESTRAK","updated_at":"2026-05-25T13:38:22.750720Z"}}